Tacoma Narrows, WA
on Tuesday, January 22, 2013

Tuesday
Previous Day Next Day
Daily Summary
 ActualAverageRecord
Temperature
Mean Temperature °F °F  
Max Temperature 39°F 45°F 52°F (2003)
Min Temperature 32°F 37°F 26°F (2008)
Degree Days
Heating Degree Days 30    
Moisture
Dew Point 32°F   
Average Humidity 90    
Maximum Humidity 96    
Minimum Humidity 79    
Precipitation
Precipitation 0.00 in in in ()
Wind
Wind Speed 0 mph   
Max Wind Speed 4 mph   
Max Gust Speed mph   
Visibility 3 miles   
Events Fog   
Averages and records for this station are not official NWS values.
Key: T is trace of precipitation, MM is missing value
Source: NWS Daily Summary
Seasonal Weather Averages
Time(PST)TemperatureDew PointHumidity Pressure Visibility Wind DirectionWind SpeedGust SpeedPrecipitationEvents Conditions
12:00 AM 33.8°F 30.2°F 87% 30.13 in 2.5 miles Calm Calm - N/A   Overcast
12:17 AM 33.8°F 30.2°F 87% 30.13 in 4.0 miles Calm Calm - N/A   Overcast
12:53 AM 33.1°F 30.9°F 92% 30.15 in 4.0 miles Calm Calm - N/A   Overcast
1:30 AM 33.8°F 32.0°F 93% 30.13 in 2.5 miles Calm Calm - N/A   Overcast
1:53 AM 33.1°F 30.9°F 92% 30.14 in 4.0 miles Calm Calm - N/A   Overcast
2:53 AM 33.1°F 30.9°F 92% 30.14 in 5.0 miles Calm Calm - N/A   Overcast
3:53 AM 33.1°F 30.9°F 92% 30.13 in 4.0 miles Calm Calm - N/A   Overcast
3:59 AM 32.0°F 30.2°F 93% 30.12 in 1.8 miles Calm Calm - N/A   Overcast
4:14 AM 33.8°F 30.2°F 87% 30.11 in 3.0 miles Calm Calm - N/A   Overcast
4:28 AM 33.8°F 30.2°F 87% 30.10 in 1.8 miles Calm Calm - N/A   Overcast
4:38 AM 33.8°F 30.2°F 87% 30.10 in 0.5 miles NE 3.5 mph - N/A Fog Fog
4:48 AM 33.8°F 30.2°F 87% 30.10 in 0.2 miles Calm Calm - N/A Fog Fog
4:53 AM 32.0°F 30.9°F 96% 30.11 in 0.2 miles NE 3.5 mph - N/A Fog Fog
5:53 AM 32.0°F 30.0°F 92% 30.11 in 0.2 miles Calm Calm - N/A Fog Fog
6:53 AM 32.0°F 30.9°F 96% 30.10 in 0.2 miles Calm Calm - N/A Fog Fog
7:53 AM 33.1°F 30.9°F 92% 30.09 in 0.2 miles Calm Calm - N/A Fog Fog
8:53 AM 33.1°F 32.0°F 96% 30.09 in 0.2 miles Calm Calm - N/A Fog Fog
9:46 AM 33.8°F 32.0°F 93% 30.07 in 0.2 miles Calm Calm - N/A Fog Fog
9:53 AM 34.0°F 32.0°F 92% 30.09 in 0.2 miles Calm Calm - N/A Fog Fog
10:32 AM 33.8°F 32.0°F 93% 30.07 in 1.0 miles Calm Calm - N/A   Mist
10:53 AM 34.0°F 32.0°F 92% 30.09 in 0.8 miles Calm Calm - N/A   Overcast
11:53 AM 35.1°F 32.0°F 89% 30.07 in 0.8 miles WSW 3.5 mph - N/A   Overcast
12:00 PM 33.8°F 32.0°F 93% 30.05 in 2.5 miles Calm Calm - N/A   Overcast
12:53 PM 36.0°F 32.0°F 86% 30.05 in 2.5 miles Calm Calm - N/A   Mostly Cloudy
12:58 PM 35.6°F 32.0°F 87% 30.04 in 8.0 miles Calm Calm - N/A   Scattered Clouds
1:53 PM 37.0°F 33.1°F 86% 30.02 in 7.0 miles Calm Calm - N/A   Scattered Clouds
2:53 PM 37.9°F 33.1°F 83% 30.01 in 8.0 miles Calm Calm - N/A   Scattered Clouds
3:53 PM 37.9°F 34.0°F 86% 29.99 in 6.0 miles Calm Calm - N/A   Scattered Clouds
4:53 PM 37.9°F 34.0°F 86% 29.99 in 5.0 miles Calm Calm - N/A   Partly Cloudy
5:53 PM 37.9°F 34.0°F 86% 29.98 in 7.0 miles Calm Calm - N/A   Clear
6:53 PM 37.0°F 34.0°F 89% 29.96 in 7.0 miles Calm Calm - N/A   Clear
7:53 PM 37.0°F 34.0°F 89% 29.94 in 7.0 miles Calm Calm - N/A   Clear
8:53 PM 37.9°F 35.1°F 89% 29.94 in 5.0 miles West 3.5 mph - N/A   Clear
9:53 PM 37.9°F 35.1°F 89% 29.93 in 6.0 miles Calm Calm - N/A   Overcast
10:53 PM 37.9°F 35.1°F 89% 29.94 in 5.0 miles South 3.5 mph - N/A   Mostly Cloudy
11:53 PM 39.0°F 33.1°F 79% 29.94 in 10.0 miles Calm Calm - N/A   Mostly Cloudy
Moon Phase
Jan. 22 Jan. 26 Feb. 03 Feb. 10 Feb. 17
Sunrise:07:46 AM (PST) Moon Rise:01:21 PM (PST)
Sunset:04:57 PM (PST) Moon Set:04:15 AM (PST)

Copyright © 2014 The Weather Underground, Inc.